| time (UTC) | temp C | wind direction | speed KPH | gust KPH | rain 1hr cm | rain 24hr cm | rain mn cm | humidity % | barometer mb |
| 20260831002925 | 19 | 245 | 3.2 | 4.8 | 0.00 | 0.00 | 0.00 | 91 | 1019.1 |
| 20260831002424 | 18 | 315 | 0.0 | 0.0 | 0.00 | 0.00 | 0.00 | 92 | 1018.9 |
| 20260831001920 | 18 | 322 | 0.0 | 1.6 | 0.00 | 0.00 | 0.00 | 93 | 1018.9 |
| 20260831001415 | 18 | 328 | 1.6 | 1.6 | 0.00 | 0.00 | 0.00 | 94 | 1018.9 |
| 20260831000912 | 19 | 37 | 0.0 | 0.0 | 0.00 | 0.00 | 0.00 | 93 | 1018.7 |
| 20260831000410 | 19 | 11 | 0.0 | 0.0 | 0.00 | 0.00 | 0.00 | 92 | 1018.7 |
| 20260830235906 | 19 | 309 | 0.0 | 1.6 | 0.00 | 0.00 | 0.00 | 93 | 1018.4 |
| 20260830235401 | 19 | 28 | 1.6 | 3.2 | 0.00 | 0.00 | 0.00 | 92 | 1018.3 |
| 20260830234856 | 19 | 309 | 0.0 | 1.6 | 0.00 | 0.00 | 0.00 | 93 | 1018.3 |
| 20260830234351 | 19 | 347 | 0.0 | 0.0 | 0.00 | 0.00 | 0.00 | 93 | 1018.3 |
| 20260830233848 | 19 | 37 | 0.0 | 1.6 | 0.00 | 0.00 | 0.00 | 92 | 1018.4 |
| 20260830233343 | 19 | 301 | 1.6 | 1.6 | 0.00 | 0.00 | 0.00 | 93 | 1018.2 |
| 20260830232838 | 19 | 345 | 0.0 | 1.6 | 0.00 | 0.00 | 0.00 | 92 | 1018.3 |
| 20260830232334 | 19 | 343 | 0.0 | 1.6 | 0.00 | 0.00 | 0.00 | 93 | 1018.4 |
| 20260830231830 | 19 | 50 | 0.0 | 0.0 | 0.00 | 0.00 | 0.00 | 93 | 1018.1 |
| 20260830231330 | 19 | 49 | 0.0 | 1.6 | 0.00 | 0.00 | 0.00 | 93 | 1018.6 |
| 20260830230830 | 19 | 25 | 1.6 | 3.2 | 0.00 | 0.00 | 0.00 | 92 | 1018.4 |
| 20260830230325 | 20 | 24 | 1.6 | 1.6 | 0.00 | 0.00 | 0.00 | 92 | 1018.4 |
| 20260830225825 | 20 | 51 | 1.6 | 3.2 | 0.00 | 0.00 | 0.00 | 91 | 1018.4 |
| 20260830225321 | 20 | 32 | 0.0 | 1.6 | 0.00 | 0.00 | 0.00 | 92 | 1018.2 |
| 20260830224820 | 20 | 37 | 0.0 | 0.0 | 0.00 | 0.00 | 0.00 | 92 | 1018.3 |
| 20260830224314 | 20 | 52 | 0.0 | 1.6 | 0.00 | 0.00 | 0.00 | 92 | 1018.2 |
| 20260830223811 | 20 | 336 | 0.0 | 1.6 | 0.00 | 0.00 | 0.00 | 92 | 1018.4 |
| 20260830223307 | 20 | 6 | 0.0 | 1.6 | 0.00 | 0.00 | 0.00 | 92 | 1018.2 |
| 20260830222801 | 20 | 50 | 0.0 | 0.0 | 0.00 | 0.00 | 0.00 | 92 | 1018.2 |
| 20260830222256 | 20 | 37 | 0.0 | 0.0 | 0.00 | 0.00 | 0.00 | 92 | 1018.1 |
| 20260830221752 | 20 | 19 | 0.0 | 0.0 | 0.00 | 0.00 | 0.00 | 91 | 1018.1 |
| 20260830221249 | 20 | 315 | 0.0 | 0.0 | 0.00 | 0.00 | 0.00 | 91 | 1018.1 |
| 20260830220749 | 20 | 29 | 0.0 | 0.0 | 0.00 | 0.00 | 0.00 | 91 | 1018.2 |
| 20260830220248 | 20 | 69 | 0.0 | 1.6 | 0.00 | 0.00 | 0.00 | 90 | 1018.2 |
| 20260830215747 | 20 | 29 | 0.0 | 1.6 | 0.00 | 0.00 | 0.00 | 90 | 1018.1 |
| 20260830215242 | 20 | 15 | 0.0 | 0.0 | 0.00 | 0.00 | 0.00 | 89 | 1018.0 |
| 20260830214737 | 20 | 56 | 3.2 | 3.2 | 0.00 | 0.00 | 0.00 | 87 | 1018.0 |
| 20260830214237 | 20 | 15 | 0.0 | 0.0 | 0.00 | 0.00 | 0.00 | 87 | 1018.0 |
| 20260830213736 | 20 | 13 | 0.0 | 1.6 | 0.00 | 0.00 | 0.00 | 88 | 1018.0 |
| 20260830213231 | 21 | 48 | 0.0 | 0.0 | 0.00 | 0.00 | 0.00 | 85 | 1018.0 |
| 20260830212727 | 21 | 15 | 0.0 | 0.0 | 0.00 | 0.00 | 0.00 | 85 | 1018.2 |
| 20260830212223 | 21 | 309 | 0.0 | 0.0 | 0.00 | 0.00 | 0.00 | 84 | 1018.4 |
| 20260830211717 | 21 | 6 | 0.0 | 1.6 | 0.00 | 0.00 | 0.00 | 82 | 1018.3 |
| 20260830211216 | 21 | 280 | 1.6 | 3.2 | 0.00 | 0.00 | 0.00 | 80 | 1018.4 |
| 20260830210712 | 21 | 246 | 0.0 | 0.0 | 0.00 | 0.00 | 0.00 | 79 | 1018.4 |
| 20260830210212 | 21 | 284 | 1.6 | 3.2 | 0.00 | 0.00 | 0.00 | 81 | 1018.4 |
| 20260830205709 | 21 | 242 | 0.0 | 3.2 | 0.00 | 0.00 | 0.00 | 79 | 1018.2 |
| 20260830205204 | 21 | 204 | 3.2 | 4.8 | 0.00 | 0.00 | 0.00 | 80 | 1018.3 |
| 20260830204704 | 21 | 242 | 0.0 | 1.6 | 0.00 | 0.00 | 0.00 | 79 | 1018.3 |
| 20260830204202 | 21 | 309 | 0.0 | 1.6 | 0.00 | 0.00 | 0.00 | 80 | 1018.0 |
| 20260830203659 | 21 | 55 | 0.0 | 0.0 | 0.00 | 0.00 | 0.00 | 83 | 1018.2 |
| 20260830203154 | 21 | 318 | 1.6 | 3.2 | 0.00 | 0.00 | 0.00 | 85 | 1018.2 |
| 20260830202648 | 21 | 84 | 0.0 | 3.2 | 0.00 | 0.00 | 0.00 | 80 | 1018.2 |
| 20260830202143 | 21 | 9 | 1.6 | 3.2 | 0.00 | 0.00 | 0.00 | 80 | 1018.3 |
| 20260830201643 | 21 | 64 | 1.6 | 3.2 | 0.00 | 0.00 | 0.00 | 82 | 1018.3 |
| 20260830201138 | 21 | 322 | 0.0 | 1.6 | 0.00 | 0.00 | 0.00 | 81 | 1018.2 |
| 20260830200633 | 21 | 43 | 0.0 | 1.6 | 0.00 | 0.00 | 0.00 | 79 | 1018.0 |
| 20260830200133 | 21 | 11 | 1.6 | 3.2 | 0.00 | 0.00 | 0.00 | 78 | 1018.0 |
| 20260830195628 | 21 | 74 | 1.6 | 1.6 | 0.00 | 0.00 | 0.00 | 78 | 1018.0 |
| 20260830195126 | 21 | 343 | 0.0 | 1.6 | 0.00 | 0.00 | 0.00 | 79 | 1017.9 |
| 20260830194626 | 22 | 12 | 1.6 | 4.8 | 0.00 | 0.00 | 0.00 | 73 | 1017.8 |
| 20260830194120 | 22 | 54 | 1.6 | 3.2 | 0.00 | 0.00 | 0.00 | 73 | 1018.2 |
| 20260830193615 | 22 | 19 | 1.6 | 3.2 | 0.00 | 0.00 | 0.00 | 72 | 1018.2 |
| 20260830193109 | 22 | 41 | 3.2 | 3.2 | 0.00 | 0.00 | 0.00 | 77 | 1017.9 |
| 20260830192600 | 22 | 29 | 3.2 | 3.2 | 0.00 | 0.00 | 0.00 | 75 | 1018.0 |
| 20260830192059 | 22 | 47 | 3.2 | 6.4 | 0.00 | 0.00 | 0.00 | 74 | 1018.3 |
| 20260830191554 | 22 | 11 | 3.2 | 6.4 | 0.00 | 0.00 | 0.00 | 75 | 1018.0 |
| 20260830191050 | 23 | 300 | 3.2 | 3.2 | 0.00 | 0.00 | 0.00 | 79 | 1017.8 |
| 20260830190545 | 23 | 333 | 1.6 | 3.2 | 0.00 | 0.00 | 0.00 | 77 | 1018.2 |
| 20260830190040 | 23 | 272 | 3.2 | 4.8 | 0.00 | 0.00 | 0.00 | 72 | 1017.7 |
| 20260830185533 | 24 | 88 | 3.2 | 3.2 | 0.00 | 0.00 | 0.00 | 74 | 1017.7 |
| 20260830185029 | 24 | 274 | 3.2 | 3.2 | 0.00 | 0.00 | 0.00 | 70 | 1017.8 |
| 20260830184527 | 24 | 331 | 0.0 | 4.8 | 0.00 | 0.00 | 0.00 | 70 | 1017.7 |
| 20260830184017 | 25 | 202 | 0.0 | 3.2 | 0.00 | 0.00 | 0.00 | 70 | 1017.6 |
| 20260830183511 | 25 | 302 | 0.0 | 4.8 | 0.00 | 0.00 | 0.00 | 69 | 1017.8 |
| 20260830183008 | 25 | 227 | 3.2 | 6.4 | 0.00 | 0.00 | 0.00 | 68 | 1017.9 |
| 20260830182502 | 25 | 286 | 8.0 | 8.0 | 0.00 | 0.00 | 0.00 | 67 | 1017.7 |
| 20260830181959 | 25 | 183 | 1.6 | 4.8 | 0.00 | 0.00 | 0.00 | 70 | 1017.9 |
| 20260830181454 | 25 | 216 | 6.4 | 9.7 | 0.00 | 0.00 | 0.00 | 67 | 1018.0 |
| 20260830180948 | 25 | 259 | 1.6 | 6.4 | 0.00 | 0.00 | 0.00 | 66 | 1017.8 |
| 20260830180448 | 25 | 217 | 0.0 | 4.8 | 0.00 | 0.00 | 0.00 | 66 | 1017.9 |
| 20260830175947 | 25 | 347 | 3.2 | 3.2 | 0.00 | 0.00 | 0.00 | 66 | 1018.0 |
| 20260830175446 | 25 | 284 | 0.0 | 6.4 | 0.00 | 0.00 | 0.00 | 66 | 1018.2 |
| 20260830174941 | 25 | 264 | 3.2 | 8.0 | 0.00 | 0.00 | 0.00 | 65 | 1018.3 |
| 20260830174437 | 25 | 147 | 0.0 | 8.0 | 0.00 | 0.00 | 0.00 | 65 | 1018.0 |
| 20260830173932 | 25 | 284 | 6.4 | 6.4 | 0.00 | 0.00 | 0.00 | 65 | 1018.3 |
| 20260830173428 | 25 | 299 | 8.0 | 12.9 | 0.00 | 0.00 | 0.00 | 66 | 1018.1 |
| 20260830172924 | 25 | 248 | 3.2 | 9.7 | 0.00 | 0.00 | 0.00 | 65 | 1018.2 |
| 20260830172420 | 25 | 242 | 6.4 | 11.3 | 0.00 | 0.00 | 0.00 | 62 | 1018.0 |
| 20260830171916 | 26 | 299 | 6.4 | 9.7 | 0.00 | 0.00 | 0.00 | 63 | 1018.4 |
| 20260830171411 | 26 | 297 | 3.2 | 6.4 | 0.00 | 0.00 | 0.00 | 65 | 1018.3 |
| 20260830170906 | 25 | 252 | 4.8 | 9.7 | 0.00 | 0.00 | 0.00 | 64 | 1018.1 |
| 20260830170405 | 25 | 257 | 3.2 | 14.5 | 0.00 | 0.00 | 0.00 | 65 | 1018.2 |
| 20260830165903 | 25 | 254 | 6.4 | 9.7 | 0.00 | 0.00 | 0.00 | 63 | 1018.2 |
| 20260830165400 | 26 | 237 | 4.8 | 4.8 | 0.00 | 0.00 | 0.00 | 63 | 1018.4 |
| 20260830164856 | 25 | 131 | 3.2 | 6.4 | 0.00 | 0.00 | 0.00 | 68 | 1018.4 |
| 20260830164352 | 25 | 279 | 3.2 | 3.2 | 0.00 | 0.00 | 0.00 | 65 | 1018.6 |
| 20260830163848 | 25 | 215 | 3.2 | 4.8 | 0.00 | 0.00 | 0.00 | 67 | 1018.6 |
| 20260830163343 | 25 | 281 | 3.2 | 12.9 | 0.00 | 0.00 | 0.00 | 68 | 1018.7 |
| 20260830162838 | 24 | 292 | 3.2 | 14.5 | 0.00 | 0.00 | 0.00 | 71 | 1018.6 |
| 20260830162334 | 24 | 249 | 6.4 | 12.9 | 0.00 | 0.00 | 0.00 | 68 | 1018.7 |
| 20260830161834 | 25 | 220 | 3.2 | 6.4 | 0.00 | 0.00 | 0.00 | 67 | 1019.0 |
| 20260830161333 | 24 | 199 | 1.6 | 8.0 | 0.00 | 0.00 | 0.00 | 69 | 1019.0 |
| 20260830160829 | 24 | 212 | 6.4 | 8.0 | 0.00 | 0.00 | 0.00 | 68 | 1019.2 |
| 20260830160324 | 23 | 260 | 4.8 | 11.3 | 0.00 | 0.00 | 0.00 | 70 | 1019.0 |
| 20260830155820 | 23 | 305 | 8.0 | 14.5 | 0.00 | 0.00 | 0.00 | 71 | 1019.2 |
| 20260830155316 | 23 | 259 | 4.8 | 14.5 | 0.00 | 0.00 | 0.00 | 70 | 1019.0 |
| 20260830154816 | 24 | 236 | 11.3 | 12.9 | 0.00 | 0.00 | 0.00 | 68 | 1019.1 |
| 20260830154312 | 23 | 311 | 3.2 | 9.7 | 0.00 | 0.00 | 0.00 | 72 | 1019.2 |
| 20260830153809 | 23 | 283 | 3.2 | 8.0 | 0.00 | 0.00 | 0.00 | 71 | 1019.1 |
| 20260830153304 | 23 | 345 | 1.6 | 14.5 | 0.00 | 0.00 | 0.00 | 71 | 1019.2 |
| 20260830152802 | 23 | 235 | 3.2 | 9.7 | 0.00 | 0.00 | 0.00 | 71 | 1019.4 |
| 20260830152257 | 22 | 240 | 0.0 | 11.3 | 0.00 | 0.00 | 0.00 | 73 | 1019.3 |
| 20260830151757 | 23 | 269 | 6.4 | 14.5 | 0.00 | 0.00 | 0.00 | 71 | 1019.2 |
| 20260830151256 | 22 | 155 | 3.2 | 8.0 | 0.00 | 0.00 | 0.00 | 72 | 1019.1 |
| 20260830150751 | 22 | 245 | 1.6 | 3.2 | 0.00 | 0.00 | 0.00 | 75 | 1019.4 |
| 20260830150251 | 21 | 299 | 3.2 | 6.4 | 0.00 | 0.00 | 0.00 | 76 | 1019.6 |
| 20260830145745 | 21 | 134 | 3.2 | 4.8 | 0.00 | 0.00 | 0.00 | 76 | 1019.7 |
| 20260830145241 | 21 | 321 | 3.2 | 4.8 | 0.00 | 0.00 | 0.00 | 76 | 1019.7 |
| 20260830144736 | 21 | 246 | 3.2 | 4.8 | 0.00 | 0.00 | 0.00 | 75 | 1019.5 |
| 20260830144232 | 20 | 209 | 0.0 | 3.2 | 0.00 | 0.00 | 0.00 | 77 | 1019.6 |
| 20260830143728 | 20 | 44 | 0.0 | 3.2 | 0.00 | 0.00 | 0.00 | 77 | 1019.5 |
| 20260830143226 | 20 | 132 | 0.0 | 6.4 | 0.00 | 0.00 | 0.00 | 78 | 1019.7 |
| 20260830142721 | 20 | 126 | 0.0 | 3.2 | 0.00 | 0.00 | 0.00 | 80 | 1019.5 |
| 20260830142216 | 19 | 230 | 0.0 | 8.0 | 0.00 | 0.00 | 0.00 | 81 | 1019.6 |
| 20260830141711 | 19 | 213 | 0.0 | 4.8 | 0.00 | 0.00 | 0.00 | 82 | 1019.3 |
| 20260830141206 | 19 | 272 | 1.6 | 4.8 | 0.00 | 0.00 | 0.00 | 81 | 1019.1 |
| 20260830140700 | 18 | 134 | 1.6 | 6.4 | 0.00 | 0.00 | 0.00 | 82 | 1019.3 |
| 20260830140150 | 19 | 97 | 0.0 | 3.2 | 0.00 | 0.00 | 0.00 | 81 | 1019.4 |
| 20260830135646 | 18 | 274 | 0.0 | 3.2 | 0.00 | 0.00 | 0.00 | 81 | 1019.7 |
| 20260830135141 | 18 | 237 | 3.2 | 3.2 | 0.00 | 0.00 | 0.00 | 83 | 1019.7 |
| 20260830134637 | 18 | 261 | 3.2 | 3.2 | 0.00 | 0.00 | 0.00 | 85 | 1019.5 |
| 20260830134131 | 18 | 131 | 0.0 | 0.0 | 0.00 | 0.00 | 0.00 | 87 | 1019.7 |
| 20260830133627 | 17 | 76 | 0.0 | 0.0 | 0.00 | 0.00 | 0.00 | 86 | 1019.8 |
| 20260830133122 | 17 | 50 | 0.0 | 0.0 | 0.00 | 0.00 | 0.00 | 88 | 1019.8 |
| 20260830132619 | 17 | 89 | 0.0 | 1.6 | 0.00 | 0.00 | 0.00 | 92 | 1019.9 |
| 20260830132114 | 16 | 309 | 0.0 | 0.0 | 0.00 | 0.00 | 0.00 | 93 | 1019.9 |
| 20260830131613 | 16 | 126 | 0.0 | 1.6 | 0.00 | 0.00 | 0.00 | 95 | 1019.8 |
| 20260830131108 | 16 | 67 | 0.0 | 3.2 | 0.00 | 0.00 | 0.00 | 96 | 1020.0 |
| 20260830130602 | 15 | 129 | 1.6 | 3.2 | 0.00 | 0.00 | 0.00 | 97 | 1020.2 |
| 20260830130057 | 15 | 67 | 1.6 | 3.2 | 0.00 | 0.00 | 0.00 | 97 | 1020.2 |
| 20260830125552 | 15 | 59 | 3.2 | 3.2 | 0.00 | 0.00 | 0.00 | 97 | 1020.3 |
| 20260830125051 | 15 | 69 | 0.0 | 1.6 | 0.00 | 0.00 | 0.00 | 97 | 1020.1 |
| 20260830124550 | 15 | 109 | 1.6 | 3.2 | 0.00 | 0.00 | 0.00 | 97 | 1020.3 |
| 20260830124045 | 15 | 111 | 0.0 | 3.2 | 0.00 | 0.00 | 0.00 | 97 | 1020.1 |
| 20260830123543 | 15 | 42 | 1.6 | 3.2 | 0.00 | 0.00 | 0.00 | 97 | 1020.4 |
| 20260830123038 | 15 | 57 | 1.6 | 3.2 | 0.00 | 0.00 | 0.00 | 97 | 1020.2 |
| 20260830122534 | 15 | 48 | 0.0 | 3.2 | 0.00 | 0.00 | 0.00 | 98 | 1020.1 |
| 20260830122030 | 14 | 81 | 3.2 | 3.2 | 0.00 | 0.00 | 0.00 | 99 | 1020.2 |
| 20260830121526 | 13 | 44 | 0.0 | 3.2 | 0.00 | 0.00 | 0.00 | 99 | 1020.2 |
| 20260830121025 | 13 | 97 | 1.6 | 3.2 | 0.00 | 0.00 | 0.00 | 99 | 1020.0 |
| 20260830120520 | 13 | 97 | 3.2 | 3.2 | 0.00 | 0.00 | 0.00 | 99 | 1020.3 |
| 20260830120017 | 13 | 59 | 0.0 | 3.2 | 0.00 | 0.00 | 0.00 | 99 | 1020.2 |
| 20260830115513 | 13 | 71 | 1.6 | 1.6 | 0.00 | 0.00 | 0.00 | 99 | 1020.1 |
| 20260830115008 | 13 | 110 | 3.2 | 4.8 | 0.00 | 0.00 | 0.00 | 99 | 1020.5 |
| 20260830114505 | 13 | 62 | 1.6 | 3.2 | 0.00 | 0.00 | 0.00 | 99 | 1020.3 |
| 20260830114004 | 13 | 71 | 1.6 | 3.2 | 0.00 | 0.00 | 0.00 | 99 | 1020.5 |
| 20260830113459 | 12 | 83 | 3.2 | 3.2 | 0.00 | 0.00 | 0.00 | 99 | 1020.5 |
| 20260830112954 | 12 | 66 | 3.2 | 3.2 | 0.00 | 0.00 | 0.00 | 99 | 1020.6 |
| 20260830112450 | 12 | 74 | 1.6 | 3.2 | 0.00 | 0.00 | 0.00 | 99 | 1020.8 |
| 20260830111947 | 12 | 76 | 0.0 | 3.2 | 0.00 | 0.00 | 0.00 | 99 | 1020.6 |
| 20260830111442 | 12 | 46 | 3.2 | 3.2 | 0.00 | 0.00 | 0.00 | 99 | 1020.9 |
| 20260830110937 | 12 | 49 | 3.2 | 3.2 | 0.00 | 0.00 | 0.00 | 99 | 1020.7 |
| 20260830110432 | 12 | 41 | 3.2 | 3.2 | 0.00 | 0.00 | 0.00 | 99 | 1020.6 |
| 20260830105932 | 12 | 38 | 1.6 | 3.2 | 0.00 | 0.00 | 0.00 | 99 | 1020.8 |
| 20260830105428 | 12 | 37 | 3.2 | 3.2 | 0.00 | 0.00 | 0.00 | 99 | 1020.8 |
| 20260830104924 | 12 | 75 | 3.2 | 3.2 | 0.00 | 0.00 | 0.00 | 99 | 1020.8 |
| 20260830104420 | 12 | 64 | 0.0 | 3.2 | 0.00 | 0.00 | 0.00 | 99 | 1020.5 |
| 20260830103920 | 12 | 94 | 1.6 | 3.2 | 0.00 | 0.00 | 0.00 | 99 | 1020.6 |
| 20260830103416 | 12 | 66 | 1.6 | 3.2 | 0.00 | 0.00 | 0.00 | 99 | 1020.7 |
| 20260830102914 | 12 | 38 | 3.2 | 3.2 | 0.00 | 0.00 | 0.00 | 99 | 1020.6 |
| 20260830102409 | 12 | 65 | 3.2 | 3.2 | 0.00 | 0.00 | 0.00 | 99 | 1020.5 |
| 20260830101906 | 12 | 84 | 3.2 | 3.2 | 0.00 | 0.00 | 0.00 | 99 | 1020.5 |
| 20260830101401 | 12 | 75 | 1.6 | 3.2 | 0.00 | 0.00 | 0.00 | 99 | 1020.6 |
| 20260830100901 | 12 | 54 | 3.2 | 3.2 | 0.00 | 0.00 | 0.00 | 99 | 1020.5 |
| 20260830100359 | 12 | 87 | 1.6 | 3.2 | 0.00 | 0.00 | 0.00 | 99 | 1020.6 |
| 20260830095858 | 12 | 104 | 1.6 | 3.2 | 0.00 | 0.00 | 0.00 | 99 | 1020.6 |
| 20260830095354 | 12 | 95 | 0.0 | 0.0 | 0.00 | 0.00 | 0.00 | 99 | 1020.6 |
| 20260830094850 | 12 | 64 | 0.0 | 1.6 | 0.00 | 0.00 | 0.00 | 99 | 1020.7 |
| 20260830094347 | 12 | 44 | 1.6 | 1.6 | 0.00 | 0.00 | 0.00 | 99 | 1020.7 |
| 20260830093842 | 12 | 24 | 0.0 | 3.2 | 0.00 | 0.00 | 0.00 | 99 | 1020.8 |
| 20260830093337 | 12 | 51 | 1.6 | 3.2 | 0.00 | 0.00 | 0.00 | 99 | 1020.8 |
| 20260830092832 | 12 | 75 | 3.2 | 3.2 | 0.00 | 0.00 | 0.00 | 99 | 1021.0 |
| 20260830092328 | 12 | 50 | 3.2 | 3.2 | 0.00 | 0.00 | 0.00 | 99 | 1020.8 |
| 20260830091825 | 12 | 32 | 0.0 | 3.2 | 0.00 | 0.00 | 0.00 | 99 | 1021.0 |
| 20260830091324 | 12 | 87 | 1.6 | 1.6 | 0.00 | 0.00 | 0.00 | 99 | 1021.0 |
| 20260830090823 | 13 | 55 | 0.0 | 3.2 | 0.00 | 0.00 | 0.00 | 99 | 1020.9 |
| 20260830090319 | 12 | 39 | 1.6 | 3.2 | 0.00 | 0.00 | 0.00 | 99 | 1021.0 |
| 20260830085818 | 12 | 87 | 1.6 | 3.2 | 0.00 | 0.00 | 0.00 | 99 | 1021.0 |
| 20260830085314 | 13 | 68 | 3.2 | 3.2 | 0.00 | 0.00 | 0.00 | 99 | 1020.9 |
| 20260830084810 | 13 | 79 | 3.2 | 3.2 | 0.00 | 0.00 | 0.00 | 99 | 1020.9 |
| 20260830084305 | 13 | 51 | 1.6 | 3.2 | 0.00 | 0.00 | 0.00 | 99 | 1021.0 |
| 20260830083800 | 13 | 72 | 3.2 | 3.2 | 0.00 | 0.00 | 0.00 | 99 | 1021.0 |
| 20260830083256 | 13 | 63 | 1.6 | 3.2 | 0.00 | 0.00 | 0.00 | 99 | 1021.0 |
| 20260830082755 | 13 | 77 | 1.6 | 3.2 | 0.00 | 0.00 | 0.00 | 99 | 1021.1 |
| 20260830082250 | 13 | 71 | 3.2 | 3.2 | 0.00 | 0.00 | 0.00 | 99 | 1021.0 |
| 20260830081745 | 13 | 50 | 0.0 | 1.6 | 0.00 | 0.00 | 0.00 | 99 | 1021.2 |
| 20260830081240 | 13 | 44 | 0.0 | 1.6 | 0.00 | 0.00 | 0.00 | 99 | 1021.3 |
| 20260830080734 | 13 | 47 | 0.0 | 1.6 | 0.00 | 0.00 | 0.00 | 99 | 1021.1 |
| 20260830080230 | 13 | 66 | 0.0 | 0.0 | 0.00 | 0.00 | 0.00 | 99 | 1021.3 |
| 20260830075729 | 13 | 40 | 1.6 | 1.6 | 0.00 | 0.00 | 0.00 | 99 | 1021.4 |
| 20260830075225 | 13 | 68 | 3.2 | 3.2 | 0.00 | 0.00 | 0.00 | 99 | 1021.0 |
| 20260830074720 | 13 | 73 | 3.2 | 3.2 | 0.00 | 0.00 | 0.00 | 99 | 1021.2 |
| 20260830074216 | 13 | 37 | 3.2 | 3.2 | 0.00 | 0.00 | 0.00 | 99 | 1021.3 |
| 20260830073712 | 13 | 78 | 1.6 | 3.2 | 0.00 | 0.00 | 0.00 | 99 | 1021.4 |
| 20260830073208 | 13 | 61 | 1.6 | 1.6 | 0.00 | 0.00 | 0.00 | 99 | 1021.5 |
| 20260830072707 | 13 | 46 | 1.6 | 3.2 | 0.00 | 0.00 | 0.00 | 99 | 1021.4 |
| 20260830072202 | 13 | 60 | 1.6 | 3.2 | 0.00 | 0.00 | 0.00 | 99 | 1021.1 |
| 20260830071657 | 13 | 88 | 1.6 | 3.2 | 0.00 | 0.00 | 0.00 | 99 | 1021.4 |
| 20260830071155 | 13 | 47 | 0.0 | 1.6 | 0.00 | 0.00 | 0.00 | 99 | 1021.6 |
| 20260830070645 | 13 | 45 | 0.0 | 3.2 | 0.00 | 0.00 | 0.00 | 99 | 1021.3 |
| 20260830070140 | 13 | 55 | 0.0 | 1.6 | 0.00 | 0.00 | 0.00 | 99 | 1021.3 |
| 20260830065638 | 13 | 76 | 0.0 | 1.6 | 0.00 | 0.00 | 0.00 | 99 | 1021.3 |
| 20260830065137 | 13 | 77 | 0.0 | 3.2 | 0.00 | 0.00 | 0.00 | 99 | 1021.4 |
| 20260830064631 | 13 | 53 | 0.0 | 1.6 | 0.00 | 0.00 | 0.00 | 99 | 1021.4 |
| 20260830064127 | 13 | 50 | 1.6 | 3.2 | 0.00 | 0.00 | 0.00 | 99 | 1021.3 |
| 20260830063626 | 13 | 34 | 3.2 | 3.2 | 0.00 | 0.00 | 0.00 | 99 | 1021.3 |
| 20260830063126 | 13 | 36 | 3.2 | 3.2 | 0.00 | 0.00 | 0.00 | 99 | 1021.2 |
| 20260830062620 | 13 | 42 | 3.2 | 4.8 | 0.00 | 0.00 | 0.00 | 99 | 1021.3 |
| 20260830062115 | 13 | 64 | 3.2 | 4.8 | 0.00 | 0.00 | 0.00 | 99 | 1021.3 |
| 20260830061610 | 13 | 84 | 3.2 | 3.2 | 0.00 | 0.00 | 0.00 | 99 | 1021.5 |
| 20260830061106 | 13 | 34 | 3.2 | 3.2 | 0.00 | 0.00 | 0.00 | 99 | 1021.2 |
| 20260830060603 | 13 | 67 | 0.0 | 1.6 | 0.00 | 0.00 | 0.00 | 99 | 1021.0 |
| 20260830060059 | 13 | 84 | 1.6 | 1.6 | 0.00 | 0.00 | 0.00 | 99 | 1021.1 |
| 20260830055553 | 13 | 67 | 0.0 | 1.6 | 0.00 | 0.00 | 0.00 | 99 | 1021.2 |
| 20260830055049 | 13 | 38 | 0.0 | 1.6 | 0.00 | 0.00 | 0.00 | 99 | 1021.2 |
| 20260830054545 | 13 | 76 | 0.0 | 0.0 | 0.00 | 0.00 | 0.00 | 99 | 1021.4 |
| 20260830054040 | 13 | 87 | 1.6 | 3.2 | 0.00 | 0.00 | 0.00 | 99 | 1021.3 |
| 20260830053535 | 13 | 32 | 3.2 | 3.2 | 0.00 | 0.00 | 0.00 | 99 | 1021.2 |
| 20260830053034 | 13 | 83 | 1.6 | 3.2 | 0.00 | 0.00 | 0.00 | 99 | 1021.2 |
| 20260830052530 | 13 | 52 | 1.6 | 3.2 | 0.00 | 0.00 | 0.00 | 99 | 1021.2 |
| 20260830052030 | 13 | 74 | 1.6 | 3.2 | 0.00 | 0.00 | 0.00 | 99 | 1021.2 |
| 20260830051525 | 13 | 52 | 1.6 | 3.2 | 0.00 | 0.00 | 0.00 | 99 | 1021.2 |
| 20260830051015 | 13 | 68 | 3.2 | 3.2 | 0.00 | 0.00 | 0.00 | 99 | 1021.1 |
| 20260830050509 | 13 | 81 | 3.2 | 3.2 | 0.00 | 0.00 | 0.00 | 99 | 1021.3 |
| 20260830050008 | 13 | 31 | 1.6 | 1.6 | 0.00 | 0.00 | 0.00 | 99 | 1021.3 |
| 20260830045502 | 13 | 77 | 1.6 | 3.2 | 0.00 | 0.00 | 0.00 | 99 | 1021.0 |
| 20260830045001 | 13 | 81 | 1.6 | 3.2 | 0.00 | 0.00 | 0.00 | 99 | 1021.3 |
| 20260830044451 | 13 | 51 | 1.6 | 3.2 | 0.00 | 0.00 | 0.00 | 99 | 1021.2 |
| 20260830043951 | 13 | 39 | 1.6 | 3.2 | 0.00 | 0.00 | 0.00 | 99 | 1021.4 |
| 20260830043441 | 13 | 44 | 3.2 | 3.2 | 0.00 | 0.00 | 0.00 | 99 | 1021.5 |
| 20260830042939 | 12 | 61 | 1.6 | 3.2 | 0.00 | 0.00 | 0.00 | 99 | 1021.5 |
| 20260830042438 | 13 | 76 | 1.6 | 3.2 | 0.00 | 0.00 | 0.00 | 99 | 1021.7 |
| 20260830041938 | 13 | 72 | 3.2 | 3.2 | 0.00 | 0.00 | 0.00 | 99 | 1021.3 |
| 20260830041437 | 13 | 89 | 1.6 | 1.6 | 0.00 | 0.00 | 0.00 | 99 | 1021.2 |
| 20260830040932 | 13 | 50 | 0.0 | 1.6 | 0.00 | 0.00 | 0.00 | 99 | 1021.3 |
| 20260830040428 | 13 | 52 | 1.6 | 3.2 | 0.00 | 0.00 | 0.00 | 99 | 1021.4 |
| 20260830035927 | 12 | 87 | 0.0 | 1.6 | 0.00 | 0.00 | 0.00 | 99 | 1021.1 |
| 20260830035426 | 12 | 89 | 1.6 | 3.2 | 0.00 | 0.00 | 0.00 | 99 | 1021.2 |
| 20260830034922 | 12 | 45 | 1.6 | 3.2 | 0.00 | 0.00 | 0.00 | 99 | 1021.2 |
| 20260830034418 | 12 | 75 | 3.2 | 3.2 | 0.00 | 0.00 | 0.00 | 99 | 1021.2 |
| 20260830033912 | 13 | 87 | 1.6 | 3.2 | 0.00 | 0.00 | 0.00 | 99 | 1021.0 |
| 20260830033407 | 13 | 88 | 1.6 | 3.2 | 0.00 | 0.00 | 0.00 | 99 | 1021.0 |
| 20260830032902 | 13 | 77 | 1.6 | 1.6 | 0.00 | 0.00 | 0.00 | 99 | 1021.1 |
| 20260830032401 | 13 | 54 | 0.0 | 3.2 | 0.00 | 0.00 | 0.00 | 99 | 1021.2 |
| 20260830031856 | 13 | 73 | 1.6 | 3.2 | 0.00 | 0.00 | 0.00 | 99 | 1021.0 |
| 20260830031352 | 13 | 79 | 1.6 | 1.6 | 0.00 | 0.00 | 0.00 | 99 | 1021.1 |
| 20260830030848 | 13 | 86 | 1.6 | 3.2 | 0.00 | 0.00 | 0.00 | 99 | 1021.0 |
| 20260830030343 | 13 | 111 | 0.0 | 1.6 | 0.00 | 0.00 | 0.00 | 99 | 1021.1 |
| 20260830025843 | 13 | 131 | 0.0 | 3.2 | 0.00 | 0.00 | 0.00 | 99 | 1021.5 |
| 20260830025342 | 13 | 66 | 0.0 | 1.6 | 0.00 | 0.00 | 0.00 | 99 | 1021.4 |
| 20260830024842 | 13 | 50 | 0.0 | 3.2 | 0.00 | 0.00 | 0.00 | 98 | 1021.4 |
| 20260830024337 | 13 | 87 | 1.6 | 1.6 | 0.00 | 0.00 | 0.00 | 98 | 1021.3 |
| 20260830023834 | 13 | 50 | 1.6 | 3.2 | 0.00 | 0.00 | 0.00 | 98 | 1021.3 |
| 20260830023334 | 13 | 77 | 3.2 | 3.2 | 0.00 | 0.00 | 0.00 | 98 | 1021.4 |
| 20260830022833 | 13 | 89 | 0.0 | 1.6 | 0.00 | 0.00 | 0.00 | 98 | 1021.3 |
| 20260830022328 | 13 | 37 | 0.0 | 1.6 | 0.00 | 0.00 | 0.00 | 98 | 1021.2 |
| 20260830021822 | 13 | 307 | 0.0 | 0.0 | 0.00 | 0.00 | 0.00 | 98 | 1021.5 |
| 20260830021317 | 13 | 44 | 0.0 | 1.6 | 0.00 | 0.00 | 0.00 | 97 | 1021.7 |
| 20260830020817 | 13 | 83 | 3.2 | 3.2 | 0.00 | 0.00 | 0.00 | 97 | 1021.4 |
| 20260830020312 | 13 | 24 | 1.6 | 3.2 | 0.00 | 0.00 | 0.00 | 97 | 1021.4 |
| 20260830015812 | 13 | 72 | 0.0 | 1.6 | 0.00 | 0.00 | 0.00 | 96 | 1021.6 |
| 20260830015307 | 13 | 89 | 0.0 | 3.2 | 0.00 | 0.00 | 0.00 | 96 | 1021.5 |
| 20260830014803 | 14 | 85 | 3.2 | 3.2 | 0.00 | 0.00 | 0.00 | 96 | 1021.4 |
| 20260830014259 | 14 | 94 | 0.0 | 1.6 | 0.00 | 0.00 | 0.00 | 96 | 1021.5 |
| 20260830013754 | 14 | 141 | 0.0 | 1.6 | 0.00 | 0.00 | 0.00 | 96 | 1021.4 |
| 20260830013249 | 14 | 54 | 0.0 | 0.0 | 0.00 | 0.00 | 0.00 | 95 | 1021.4 |
| 20260830012744 | 14 | 32 | 0.0 | 1.6 | 0.00 | 0.00 | 0.00 | 95 | 1021.3 |
| 20260830012240 | 14 | 52 | 0.0 | 3.2 | 0.00 | 0.00 | 0.00 | 95 | 1021.5 |
| 20260830011737 | 14 | 53 | 1.6 | 1.6 | 0.00 | 0.00 | 0.00 | 95 | 1021.3 |
| 20260830011232 | 14 | 89 | 0.0 | 3.2 | 0.00 | 0.00 | 0.00 | 95 | 1021.3 |
| 20260830010727 | 15 | 73 | 0.0 | 1.6 | 0.00 | 0.00 | 0.00 | 94 | 1021.2 |
| 20260830010226 | 15 | 50 | 0.0 | 0.0 | 0.00 | 0.00 | 0.00 | 93 | 1021.0 |
| 20260830005726 | 15 | 37 | 0.0 | 1.6 | 0.00 | 0.00 | 0.00 | 94 | 1021.0 |
| 20260830005224 | 15 | 22 | 0.0 | 1.6 | 0.00 | 0.00 | 0.00 | 93 | 1021.1 |
| 20260830004724 | 15 | 76 | 3.2 | 3.2 | 0.00 | 0.00 | 0.00 | 92 | 1021.3 |
| 20260830004220 | 15 | 71 | 3.2 | 3.2 | 0.00 | 0.00 | 0.00 | 92 | 1021.4 |
| 20260830003714 | 15 | 50 | 0.0 | 1.6 | 0.00 | 0.00 | 0.00 | 92 | 1021.2 |
| 20260830003209 | 15 | 71 | 0.0 | 0.0 | 0.00 | 0.00 | 0.00 | 91 | 1021.2 |